Location: Los Ranchitos
(37.9930°N, 122.5425°W)
Time: 02:10:49
(UTC+00:00)

ATLAS 2AS CENTAUR R/B - Pass Details

Date: 21 September 2020
Orbit: 939 x 1273 km, 63.7° (Epoch: 26 October)

Event Time Altitude Azimuth Distance (km) Brightness Sun altitude
Rises 04:27:06 0° 209° (SSW) 4,155 5.8 -27.2°
Reaches altitude 10° 04:29:50 10° 209° (SSW) 3,218 5.2 -27.7°
Maximum altitude 04:37:43 88° 122° (ESE) 1,277 2.9 -29.1°
Drops below altitude 10° 04:45:42 10° 33° (NNE) 3,250 5.2 -30.5°
Sets 04:48:28 0° 33° (NNE) 4,199 5.8 -31.0°
